Tracking 21998 objects as of 1-Dec-2020
HD Live streaming from Space Station
objects crossing your sky now

OPS 1427 (OV3-4)

Track OPS 1427 (OV3-4) now!
10-day predictions
OPS 1427 (OV3-4) is classified as:


NORAD ID: 2201
Int'l Code: 1966-052A
Perigee: 648.5 km
Apogee: 4,693.7 km
Inclination: 40.9 °
Period: 142.6 minutes
Semi major axis: 9042 km
RCS: 0.817 m2 (medium)
Launch date: June 10, 1966
Source: United States (US)
Launch site: WALLOPS ISLAND (WLPIS)
aabbcc
Your satellite tracking list
Your tracking list is empty




NASA's NSSDC Master Catalog

Two Line Element Set (TLE):
1  2201U 66052A   20336.38008588 +.00000074 +00000-0 +17846-3 0  9998
2  2201 040.8898 223.6810 2236855 076.5945 307.2726 10.09719831992762
Source of the keplerian elements: AFSPC